This demonstration page uses our WeatherBlox Daily Observations layout. Learn more.

Left ArrowRight Arrow

Hourly Observations for April 5, 2018

Temp ( °F °C ) Dew Point ( °F °C ) Humidity (%) Winds ( mph kmh ) Pressure ( in mb ) Visibility ( mi km ) Precip ( " mm )
12:51 am 00:51 Clear 40 4.4 20 -6.7 45 45 WNW 14 22 29.86 1011 10 16 0.00 0.00
1:51 am 01:51 Mostly Clear 39 3.9 18 -7.8 43 43 WNW 22 35 29.90 1012 10 16 0.00 0.00
2:51 am 02:51 Mostly Clear 37 2.8 17 -8.3 44 44 WNW 18 30 29.92 1013 10 16 0.00 0.00
3:51 am 03:51 Partly Cloudy 36 2.2 17 -8.3 46 46 NW 17 28 29.96 1014 10 16 0.00 0.03
4:51 am 04:51 Clear 35 1.7 13 -10.6 40 40 NW 21 33 29.98 1015 10 16 0.00 0.00
5:51 am 05:51 Clear 34 1.1 12 -11.1 40 40 NW 15 24 30.00 1016 10 16 0.00 0.00
6:51 am 06:51 Sunny 33 0.6 12 -11.1 42 42 WNW 10 17 30.03 1017 10 16 0.00 0.00
7:51 am 07:51 Sunny 34 1.1 11 -11.7 38 38 NW 20 31 30.06 1018 10 16 0.00 0.00
8:51 am 08:51 Mostly Sunny 35 1.7 12 -11.1 38 38 WNW 15 24 30.06 1018 10 16 0.00 0.00
9:51 am 09:51 Mostly Sunny 36 2.2 13 -10.6 39 39 W 21 33 30.07 1018 10 16 0.00 0.00
10:51 am 10:51 Sunny 38 3.3 14 -10 37 37 WNW 18 30 30.07 1018 10 16 0.00 0.00
11:51 am 11:51 Partly Cloudy 39 3.9 15 -9.4 38 38 WNW 17 28 30.08 1019 10 16 0.00 0.00
12:51 pm 12:51 Partly Cloudy 41 5 16 -8.9 36 36 W 18 30 30.07 1018 10 16 0.00 0.00
1:51 pm 13:51 Mostly Cloudy 41 5 17 -8.3 38 38 WNW 16 26 30.06 1018 10 16 0.00 0.00
2:51 pm 14:51 Mostly Cloudy 44 6.7 16 -8.9 32 32 W 20 31 30.05 1018 10 16 0.00 0.00
3:51 pm 15:51 Cloudy 44 6.7 12 -11.1 27 27 WNW 18 30 30.03 1017 10 16 0.00 0.00
4:51 pm 16:51 Partly Cloudy 44 6.7 13 -10.6 28 28 WNW 20 31 30.04 1017 10 16 0.00 0.00
5:51 pm 17:51 Partly Cloudy 43 6.1 13 -10.6 29 29 NW 14 22 30.06 1018 10 16 0.00 0.00
6:51 pm 18:51 Cloudy 43 6.1 13 -10.6 29 29 W 20 31 30.06 1018 10 16 0.00 0.00
7:51 pm 19:51 Clear 41 5 13 -10.6 32 32 WNW 14 22 30.08 1019 10 16 0.00 0.00
8:51 pm 20:51 Clear 39 3.9 14 -10 36 36 WSW 6 9 30.11 1020 10 16 0.00 0.00
9:51 pm 21:51 Clear 39 3.9 14 -10 36 36 WSW 5 7 30.12 1020 10 16 0.00 0.00
11:51 pm 23:51 Clear 34 1 18 -8 51 51 Calm 30.12 1020 10 16 0.00 0.00

Powered by Vaisala Xweather